カタログに戻る

CZ-6A DEB

運用中PO
NORAD 60786·DEBRIS·🇨🇳 China

打ち上げ Aug 6, 2024 から Taiyuan Satellite Launch Center

Loading…

次のパス (今後24時間)

TLE

最新Source: Space-Track

元期: Sep 14, 2026, 00:19 UTC

1 60786U 24140FM  26257.01319591  .00129515  00000-0  18845-2 0  9990
2 60786  89.1867 276.0840 0049610  30.8120 329.6039 15.53870891114532

AllMySatでCZ-6A DEBをリアルタイム追跡

Download on the App Store